Fort Knox, KY

12:07 PM EDT on May 27, 2018 (GMT -0400)
Godman Army Air Field

Weather History for KFTK - October, 2013

Change the Weather History Date:

Sunday, October 13, 2013

  Actual Average Record
Temperature  
Mean Temperature 64 °F -  
Max Temperature 74 °F 66 °F 82 °F (1999)
Min Temperature 54 °F 45 °F 32 °F (2006)
Growing Degree Days 14 (Base 50)    
Moisture  
Dew Point 59 °F    
Average Humidity 81    
Maximum Humidity 100    
Minimum Humidity 62    
Precipitation  
Precipitation 0.00 in - - ()
Sea Level Pressure  
Sea Level Pressure 30.22 in    
Wind  
Wind Speed 3 mph (North)    
Max Wind Speed 10 mph    
Max Gust Speed -    
Visibility 10 miles    
Events Rain    
Averages and records for this station are not official NWS values.
T = Trace of Precipitation, MM = Missing Value Source: NWS Daily Summary

Daily Weather History Graph

Daily Weather History Graph

Search for Another Location

Airport or City:

Astronomy

Oct. 13, 2013 Rise Set
Actual Time 7:50 AM EDT 7:08 PM EDT
Civil Twilight 7:24 AM EDT 7:35 PM EDT
Nautical Twilight 6:53 AM EDT 8:05 PM EDT
Astronomical Twilight 6:23 AM EDT 8:36 PM EDT
Moon 3:55 PM EDT (10/13) 2:05 AM EDT (10/13)
Length of Visible Light 12h 10m
Length of Day
11h 18m
Waxing Gibbous, 69% of the Moon is Illuminated
Oct 13
Waxing Gibbous
Oct 18
Full
Oct 26
Last Quarter
Nov 3
New
Nov 10
First Quarter

Hourly Weather History & Observations

Time (EDT) Temp. Dew Point Humidity Pressure Visibility Wind Dir Wind Speed Gust Speed Precip Events Conditions
12:58 AM 59.2 °F 58.6 °F 98% 30.13 in 10.0 mi Calm Calm - N/A   Partly Cloudy
1:58 AM 59.4 °F 58.8 °F 98% 30.14 in 10.0 mi Calm Calm - N/A   Overcast
2:58 AM 61.0 °F 60.3 °F 97% 30.14 in 10.0 mi Calm Calm - N/A   Overcast
3:58 AM 61.2 °F 60.3 °F 97% 30.15 in 10.0 mi Calm Calm - N/A   Overcast
4:39 AM 60.8 °F 60.8 °F 100% 30.16 in 10.0 mi Calm Calm - N/A Rain Light Rain
4:44 AM 60.8 °F 60.8 °F 100% 30.16 in 10.0 mi Calm Calm - N/A   Overcast
4:58 AM 61.0 °F 60.4 °F 98% 30.16 in 10.0 mi Calm Calm - 0.00 in   Overcast
5:58 AM 62.6 °F 60.6 °F 93% 30.18 in 10.0 mi NNW 9.2 mph - N/A   Mostly Cloudy
6:58 AM 63.9 °F 61.2 °F 91% 30.19 in 10.0 mi North 6.9 mph - N/A   Overcast
7:58 AM 63.9 °F 61.2 °F 91% 30.21 in 10.0 mi NNE 5.8 mph - N/A   Mostly Cloudy
8:58 AM 64.0 °F 61.0 °F 90% 30.23 in 10.0 mi NNE 6.9 mph - N/A   Overcast
9:58 AM 65.3 °F 60.8 °F 85% 30.25 in 10.0 mi North 4.6 mph - N/A   Scattered Clouds
10:58 AM 66.6 °F 61.2 °F 83% 30.26 in 10.0 mi North 6.9 mph - N/A   Mostly Cloudy
11:58 AM 70.7 °F 61.7 °F 73% 30.27 in 10.0 mi NNW 8.1 mph - N/A   Scattered Clouds
12:58 PM 72.7 °F 62.6 °F 71% 30.26 in 10.0 mi NNW 8.1 mph - N/A   Scattered Clouds
1:58 PM 73.2 °F 62.6 °F 69% 30.25 in 10.0 mi North 5.8 mph - N/A   Mostly Cloudy
2:03 PM 73.4 °F 62.6 °F 69% 30.25 in 10.0 mi NW 10.4 mph - N/A   Overcast
2:13 PM 73.4 °F 62.6 °F 69% 30.25 in 10.0 mi North 9.2 mph - N/A   Overcast
2:18 PM 73.4 °F 62.6 °F 69% 30.25 in 10.0 mi NNW 4.6 mph - N/A   Overcast
2:23 PM 73.4 °F 62.6 °F 69% 30.25 in 10.0 mi North 6.9 mph - N/A   Overcast
2:55 PM 73.4 °F 60.8 °F 65% 30.24 in 10.0 mi North 6.9 mph - N/A   Mostly Cloudy
3:55 PM 73.9 °F 62.2 °F 67% 30.24 in 10.0 mi North 6.9 mph - N/A   Mostly Cloudy
4:55 PM 73.4 °F 60.8 °F 65% 30.22 in 10.0 mi Variable 5.8 mph - N/A   Partly Cloudy
5:55 PM 73.2 °F 59.5 °F 62% 30.22 in 10.0 mi North 6.9 mph - N/A   Clear
6:55 PM 68.5 °F 58.1 °F 69% 30.23 in 10.0 mi North 4.6 mph - N/A   Clear
7:55 PM 63.0 °F 57.0 °F 81% 30.24 in 10.0 mi NNW 4.6 mph - N/A   Clear
8:55 PM 60.6 °F 54.3 °F 80% 30.26 in 10.0 mi North 5.8 mph - N/A   Clear
9:55 PM 59.0 °F 49.8 °F 72% 30.27 in 10.0 mi NNW 5.8 mph - N/A   Clear
10:55 PM 56.1 °F 49.3 °F 78% 30.27 in 10.0 mi North 4.6 mph - N/A   Clear
11:58 PM 54.7 °F 47.3 °F 76% 30.29 in 10.0 mi North 4.6 mph - N/A   Clear